Flag for U.S.A. Weather past 2 weeks in Fort Myers, Florida, U.S.A.

85 °F


Feels Like: 88 °F
Forecast: 72 / 83 °F
Wind: 10 mph from West

Location: Page Field

Current Time: Oct 6, 2015 at 4:53:47 PM

Latest Report: Oct 6, 2015 at 3:53 PM

Visibility: 10 mi

Pressure: 29.85 "Hg

Humidity: 57%

Dew point: 68 °F

Location of Fort MyersLocation

Historic Weather in Fort Myers — Graph


Fort Myers temperature yesterday

Maximum temperature yesterday: 82 °F (at 3:53 PM)
Minimum temperature yesterday: 70 °F (at 5:53 AM)
Average temperature yesterday: 74 °F

Past Weeks' High & Low Weather Summary

High91 °F (Sep 21, 3:53 PM)100% (Sep 26, 7:53 AM)29.97 "Hg (Sep 26, 7:53 AM)
Low70 °F (Oct 4, 4:53 AM)48% (Sep 21, 5:53 PM)29.54 "Hg (Oct 2, 3:53 PM)
Average79 °F82%29.82 "Hg
* Reported Sep 21 2:53 PM — Oct 6 2:53 PM, Fort Myers, Weather by CustomWeather, © 2015

Note: Actual official high and low records may vary slightly from our data, if they occured in-between our weather recording intervals... More about our weather records


Fort Myers weather history for previous 24 hours

Time TempWeatherWind HumidityBarometerVisibility
2:53 PM
Tue, Oct 6
83 °FPartly sunny.5 mph63%29.86 "Hg10 mi
1:53 PM83 °FBroken clouds.6 mph61%29.88 "Hg10 mi
12:53 PM81 °FBroken clouds.No wind67%29.90 "Hg10 mi
11:53 AM82 °FScattered clouds.3 mph65%29.92 "Hg10 mi
10:53 AM79 °FPartly sunny.3 mph72%29.93 "Hg10 mi
9:53 AM79 °FSunny.3 mph74%29.91 "Hg10 mi
8:53 AM76 °FPassing clouds.No wind82%29.91 "Hg10 mi
7:53 AM73 °FPassing clouds.No wind90%29.90 "Hg10 mi
6:53 AM73 °FOvercast.No wind97%29.88 "Hg10 mi
6:01 AM73 °FOvercast.No wind94%29.86 "Hg10 mi
4:53 AM73 °FMostly cloudy.No wind97%29.85 "Hg10 mi
3:53 AM73 °FOvercast.No wind97%29.84 "Hg10 mi
2:53 AM72 °FPassing clouds.No wind97%29.84 "Hg10 mi
1:53 AM73 °FOvercast.No wind94%29.85 "Hg10 mi
12:53 AM73 °FOvercast.No wind90%29.86 "Hg10 mi
11:53 PM
Mon, Oct 5
72 °FMostly cloudy.3 mph93%29.86 "Hg10 mi
10:53 PM72 °FMostly cloudy.No wind93%29.85 "Hg10 mi
9:53 PM72 °FMostly cloudy.No wind93%29.85 "Hg10 mi
8:53 PM72 °FMostly cloudy.6 mph93%29.83 "Hg10 mi
7:53 PM73 °FLight rain. Mostly cloudy.9 mph94%29.82 "Hg9 mi
6:53 PM75 °FMostly cloudy.5 mph85%29.79 "Hg10 mi
5:53 PM75 °FOvercast.8 mph88%29.78 "Hg10 mi
4:53 PM74 °FMostly cloudy.7 mph91%29.78 "Hg9 mi
Weather by CustomWeather, © 2015

See weather overviewHow to use our weather pages